Location: Unspecified
(0.0000°N, 0.0000°E)
Time: 13:51:10
(UTC+00:00)

Vanguard 2 Rocket - Visible Passes

Search period start: 21 February 2019 00:00
Search period end: 03 March 2019 00:00
Orbit: 555 x 3325 km, 32.9° (Epoch: 20 February)

Date Brightness Start Highest point End Pass type
(mag) Time Alt. Az. Time Alt. Az. Time Alt. Az.
21 Feb 10.4 01:44:12 10° SSW 01:54:30 18° S 02:02:17 10° SE visible
21 Feb 9.0 04:02:03 10° SW 04:13:20 37° SSE 04:20:04 10° E visible
21 Feb 10.3 19:50:31 10° W 20:04:29 40° SSW 20:22:46 10° SE visible
21 Feb 10.8 22:14:00 10° SW 22:27:15 21° SSW 22:40:16 10° SSE visible
22 Feb 10.6 00:40:44 10° SSW 00:56:59 15° SSE 01:00:33 10° SE visible
22 Feb 9.6 03:03:04 15° SSW 03:12:19 30° SSE 03:20:05 10° ESE visible
22 Feb 7.5 05:17:41 10° SW 05:28:24 88° SE 05:34:18 10° NE visible
22 Feb 10.0 18:49:29 10° W 19:02:03 50° SSW 19:20:48 10° SE visible
22 Feb 10.7 21:09:51 10° WSW 21:23:29 25° SSW 21:38:32 10° SSE visible
22 Feb 10.7 23:36:29 10° SW 23:48:10 18° S 23:49:41 17° S visible
23 Feb 10.0 02:09:24 25° S 02:10:38 25° SSE 02:19:27 10° ESE visible
23 Feb 8.3 04:15:45 10° SW 04:28:22 60° SSE 04:35:19 10° ENE visible
23 Feb 10.6 20:06:59 10° WSW 20:20:09 30° SSW 20:36:36 10° SSE visible
23 Feb 10.8 22:31:53 10° SW 22:44:11 19° S 22:52:20 14° SSE visible
24 Feb 10.5 00:55:17 10° SSW 01:15:21 15° SE 01:18:02 10° ESE visible
24 Feb 9.0 03:21:21 29° SSW 03:27:42 45° SSE 03:35:51 10° E visible
24 Feb 7.7 05:32:24 10° WSW 05:42:41 54° NW 05:48:32 10° NE visible
24 Feb 10.3 19:05:17 10° W 19:17:23 36° SSW 19:34:31 10° SE visible
24 Feb 10.8 21:27:37 10° SW 21:40:08 20° S 21:53:22 10° SSE visible
24 Feb 10.7 23:52:11 10° SSW 00:00:48 19° S 00:00:48 19° S visible
25 Feb 9.6 02:26:58 35° SSE 02:26:58 35° SSE 02:35:47 10° E visible
25 Feb 7.8 04:32:56 18° SW 04:42:58 86° NW 04:50:00 10° NE visible
25 Feb 10.8 20:24:12 10° WSW 20:36:23 23° SSW 20:50:50 10° SSE visible
25 Feb 10.7 22:48:44 10° SW 23:01:17 19° S 23:03:36 18° SSE visible
26 Feb 10.3 01:09:10 10° SW 01:32:22 17° ESE 01:34:58 10° ESE visible
26 Feb 8.4 03:38:18 46° SSW 03:42:39 68° SSE 03:50:57 10° ENE visible
26 Feb 8.3 05:47:58 10° W 05:56:43 31° NW 06:02:15 10° NNE visible
26 Feb 10.6 19:21:50 10° WSW 19:33:13 27° SSW 19:48:20 10° SSE visible
26 Feb 10.8 21:45:10 10° SW 21:57:09 19° S 22:06:27 13° SSE visible
27 Feb 10.8 00:06:44 10° SSW 00:37:32 - E 00:12:10 18° SSW visible
27 Feb 9.1 02:43:27 49° SE 02:43:27 49° SE 02:51:23 10° ENE visible
27 Feb 8.0 04:49:23 23° WSW 04:57:11 54° NW 05:04:10 10° NE visible
27 Feb 10.3 18:20:29 10° W 18:30:45 32° SSW 18:45:56 10° SE visible
27 Feb 10.8 20:41:49 10° SW 20:53:07 19° S 21:05:53 10° SSE visible
27 Feb 10.7 23:04:11 10° SSW 23:15:02 21° S 23:15:02 21° S visible
28 Feb 10.1 01:48:25 20° E 01:48:25 20° E 01:51:08 10° E visible
28 Feb 8.1 03:54:19 60° WSW 03:57:10 82° NW 04:05:32 10° NE visible
28 Feb 10.7 19:39:06 10° SW 19:49:33 21° S 20:02:35 10° SSE visible
28 Feb 10.7 22:01:35 10° SSW 22:14:15 20° S 22:17:56 19° SSE visible
01 Mar 10.9 00:20:40 10° SW 00:53:12 - E 00:23:39 15° SSW visible
01 Mar 8.7 02:59:05 60° E 02:59:05 60° E 03:06:22 10° ENE visible
01 Mar 8.6 05:04:59 21° W 05:11:13 34° NW 05:17:54 10° NNE visible
01 Mar 10.6 18:37:11 10° WSW 18:46:40 23° SSW 18:59:40 10° SSE visible
01 Mar 10.8 20:59:02 10° SW 21:10:10 18° S 21:20:52 12° SE visible
01 Mar 10.7 23:18:37 10° SSW 23:26:35 22° SSW 23:26:35 22° SSW visible
02 Mar 9.9 02:03:41 23° E 02:03:41 23° E 02:06:37 10° ENE visible
02 Mar 8.4 04:09:34 51° WNW 04:11:20 55° NW 04:19:40 10° NE visible
02 Mar 10.8 19:56:37 10° SW 20:06:19 18° S 20:17:47 10° SE visible
02 Mar 10.6 22:16:45 10° SSW 22:29:32 23° S 22:29:32 23° S visible
